Hourly Weather Roundup
Issued by NWS Central Illinois

Home | Current Version | Previous Version | Text Only | Print | Product List | Glossary On
Versions: 1 2 3 4 5 6 7 8 9 10 11 12 13 14 15 16 17 18 19 20 21 22 23 24 25 26 27 28 29 30 31 32 33 34 35 36 37 38 39 40 41 42 43 44 45 46 47 48 49 50
000
NZUS43 KILX 181310
HWRILX

AREA WEATHER ROUNDUP
NATIONAL WEATHER SERVICE, LINCOLN IL
700 AM CST THU DEC 18 2014


CITY           SKY/WX    TMP DP  RH WIND       PRES   REMARKS
BLOOMINGTON    MOCLDY    22  19  88 CALM      30.30R
CHAMPAIGN      CLOUDY    26  19  74 CALM      30.29R
DECATUR        CLOUDY    25  21  85 CALM      30.31R
FLORA          MOCLDY    27  23  85 NE3       30.30S
GALESBURG      CLOUDY    20  19  93 CALM      30.30S
JACKSONVILLE   MIX PCPN  28  23  82 CALM      30.32R
LACON          PTCLDY    14  11  89 SW3       30.32R
LAWRENCEVILLE  CLOUDY    27  22  81 E5        30.32R WCI  22
LITCHFIELD     CLOUDY    26  20  79 E3        30.29R
$$


CITY           SKY/WX    TMP DP  RH WIND       PRES   REMARKS
LINCOLN        CLOUDY    25  22  89 CALM      30.32R
MACOMB         CLOUDY    22  20  91 CALM      30.32S
MATTOON        CLOUDY    25  18  74 E3        30.28S
MT CARMEL AP   CLOUDY    30  23  74 NE3       30.31R
OLNEY-NOBLE AP CLOUDY    27  23  86 CALM      30.32R
PARIS          CLOUDY    26  21  82 CALM      30.30S
PEORIA         MOCLDY    20  15  81 CALM      30.31R
PONTIAC        PTCLDY    17  15  92 CALM      30.31R
RANTOUL        CLOUDY    25  21  85 CALM      30.30R
ROBINSON       CLOUDY    27  22  83 E3        30.32S
SPRINGFIELD    CLOUDY    26  22  84 CALM      30.31R
TAYLORVILLE    CLOUDY    27  21  80 CALM      30.31R
$$

...REGIONAL REPORTS...


CITY           SKY/WX    TMP DP  RH WIND       PRES   REMARKS
CHICAGO O`HARE PTCLDY    19  13  77 W3        30.27S
KANKAKEE       CLOUDY    24  18  79 CALM      30.30R
MOLINE         MOCLDY    21  17  84 CALM      30.31R
MOUNT VERNON   CLOUDY    28  21  74 NE5       30.29S WCI  23
PITTSFIELD     LGT SNOW  26  25  93 NE3       30.30S VSB 3/4
QUINCY         CLOUDY    26  20  77 NE3       30.29R
ROCKFORD       MOCLDY    18  12  77 N3        30.30S
$$


CITY           SKY/WX    TMP DP  RH WIND       PRES   REMARKS
BURLINGTON     FLURRIES  24  19  81 CALM      30.30R
CEDAR RAPIDS   MOCLDY    13  10  88 CALM      30.29R
DES MOINES     CLOUDY    23  16  74 SE5       30.29R WCI  17
KIRKSVILLE     LGT SNOW  25  24  96 NE6       30.27S FOG     WCI  18
OTTUMWA        CLOUDY    22  17  81 E5        30.28S WCI  16
ST LOUIS       FLURRIES  30  24  78 CALM      30.29S
$$


CITY           SKY/WX    TMP DP  RH WIND       PRES   REMARKS
TERRE HAUTE    CLOUDY    26  19  74 CALM      30.30S
EVANSVILLE     CLOUDY    31  24  75 N5        30.30R WCI  26
INDIANAPOLIS   CLOUDY    25  18  74 CALM      30.28R
LAFAYETTE      CLOUDY    24  18  77 CALM      30.30R
MADISON        CLOUDY    20  16  84 CALM      30.26R
MILWAUKEE      MOCLDY    20  15  81 SW6       30.26R WCI  12
$$





USA.gov is the U.S. government's official web portal to all federal, state and local government web resources and services.